Time,TemperatureF,DewpointF,PressureIn,WindDirection,WindDirectionDegrees,WindSpeedMPH,WindSpeedGustMPH,Humidity,HourlyPrecipIn,Conditions,Clouds,dailyrainin,SoftwareType,DateUTC
2013-05-19 00:00:00,70.0,66.3,29.94,WNW,290,1.0,1.0,88,0.00,,,0.00,Wunderground v.1.15,2013-05-18 21:00:00,
2013-05-19 00:09:00,70.4,66.3,29.93,WNW,289,1.0,2.0,87,0.00,,,0.00,Wunderground v.1.15,2013-05-18 21:09:00,
2013-05-19 00:19:00,70.6,66.5,29.93,WNW,289,1.0,1.0,87,0.00,,,0.00,Wunderground v.1.15,2013-05-18 21:19:00,
2013-05-19 00:29:00,70.6,66.2,29.93,WNW,289,1.0,1.0,86,0.00,,,0.00,Wunderground v.1.15,2013-05-18 21:29:00,
2013-05-19 00:39:00,70.6,66.5,29.93,WNW,289,1.0,2.0,87,0.00,,,0.00,Wunderground v.1.15,2013-05-18 21:39:00,
2013-05-19 00:49:00,70.6,66.5,29.93,WNW,289,1.0,1.0,87,0.00,,,0.00,Wunderground v.1.15,2013-05-18 21:49:00,
2013-05-19 01:00:00,70.5,66.4,29.93,WNW,289,1.0,1.0,87,0.00,,,0.00,Wunderground v.1.15,2013-05-18 22:00:00,
2013-05-19 01:09:00,70.4,66.7,29.93,WNW,289,2.0,2.0,88,0.00,,,0.00,Wunderground v.1.15,2013-05-18 22:09:00,
2013-05-19 01:19:00,70.4,67.0,29.93,WNW,289,1.0,1.0,89,0.00,,,0.00,Wunderground v.1.15,2013-05-18 22:19:00,
2013-05-19 01:29:00,70.4,67.0,29.93,WNW,289,0.0,1.0,89,0.00,,,0.00,Wunderground v.1.15,2013-05-18 22:29:00,
2013-05-19 01:39:00,69.8,65.4,29.93,WNW,289,0.0,2.0,86,0.00,,,0.00,Wunderground v.1.15,2013-05-18 22:39:00,
2013-05-19 01:49:00,68.1,64.4,29.92,WNW,289,1.0,1.0,88,0.00,,,0.00,Wunderground v.1.15,2013-05-18 22:49:00,
2013-05-19 02:00:00,67.3,64.3,29.92,WNW,289,1.0,1.0,90,0.00,,,0.00,Wunderground v.1.15,2013-05-18 23:00:00,
2013-05-19 02:09:00,67.1,64.4,29.92,WNW,289,1.0,1.0,91,0.00,,,0.00,Wunderground v.1.15,2013-05-18 23:09:00,
2013-05-19 02:19:00,66.6,63.9,29.91,NE,54,1.0,1.0,91,0.00,,,0.00,Wunderground v.1.15,2013-05-18 23:19:00,
2013-05-19 02:29:00,66.4,63.7,29.91,SE,140,1.0,2.0,91,0.00,,,0.00,Wunderground v.1.15,2013-05-18 23:29:00,
2013-05-19 02:39:00,66.4,63.7,29.91,SE,140,1.0,1.0,91,0.00,,,0.00,Wunderground v.1.15,2013-05-18 23:39:00,
2013-05-19 02:49:00,66.5,63.8,29.91,SE,139,1.0,1.0,91,0.00,,,0.00,Wunderground v.1.15,2013-05-18 23:49:00,
2013-05-19 03:00:00,66.5,64.1,29.91,SE,140,1.0,1.0,92,0.00,,,0.00,Wunderground v.1.15,2013-05-19 00:00:00,
2013-05-19 03:09:00,66.7,64.3,29.90,SE,140,0.0,0.0,92,0.00,,,0.00,Wunderground v.1.15,2013-05-19 00:09:00,
2013-05-19 03:19:00,66.7,64.0,29.91,SE,140,0.0,0.0,91,0.00,,,0.00,Wunderground v.1.15,2013-05-19 00:19:00,
2013-05-19 03:29:00,66.7,64.0,29.90,SE,140,0.0,0.0,91,0.00,,,0.00,Wunderground v.1.15,2013-05-19 00:29:00,
2013-05-19 03:39:00,66.6,63.9,29.91,SE,140,0.0,0.0,91,0.00,,,0.00,Wunderground v.1.15,2013-05-19 00:39:00,
2013-05-19 03:49:00,66.6,63.9,29.91,SE,139,0.0,0.0,91,0.00,,,0.00,Wunderground v.1.15,2013-05-19 00:49:00,
2013-05-19 04:00:00,66.5,63.5,29.91,SE,140,0.0,0.0,90,0.00,,,0.00,Wunderground v.1.15,2013-05-19 01:00:00,
2013-05-19 04:09:00,66.5,63.5,29.91,SE,140,0.0,0.0,90,0.00,,,0.00,Wunderground v.1.15,2013-05-19 01:09:00,
2013-05-19 04:19:00,66.3,63.0,29.91,SE,140,0.0,0.0,89,0.00,,,0.00,Wunderground v.1.15,2013-05-19 01:19:00,
2013-05-19 04:29:00,66.1,62.8,29.91,SE,139,0.0,0.0,89,0.00,,,0.00,Wunderground v.1.15,2013-05-19 01:29:00,
2013-05-19 04:39:00,66.1,63.1,29.91,SE,140,0.0,0.0,90,0.00,,,0.00,Wunderground v.1.15,2013-05-19 01:39:00,
2013-05-19 04:49:00,66.1,63.1,29.90,SE,140,0.0,0.0,90,0.00,,,0.00,Wunderground v.1.15,2013-05-19 01:49:00,
2013-05-19 04:59:00,66.0,62.7,29.91,SE,140,0.0,0.0,89,0.00,,,0.00,Wunderground v.1.15,2013-05-19 01:59:00,
2013-05-19 05:09:00,65.8,62.1,29.91,SE,140,0.0,0.0,88,0.00,,,0.00,Wunderground v.1.15,2013-05-19 02:09:00,
2013-05-19 05:19:00,65.4,62.1,29.91,SE,140,0.0,0.0,89,0.00,,,0.00,Wunderground v.1.15,2013-05-19 02:19:00,
2013-05-19 05:29:00,65.2,61.9,29.91,SE,139,0.0,0.0,89,0.00,,,0.00,Wunderground v.1.15,2013-05-19 02:29:00,
2013-05-19 05:39:00,65.2,61.9,29.91,SE,139,0.0,1.0,89,0.00,,,0.00,Wunderground v.1.15,2013-05-19 02:39:00,
2013-05-19 05:49:00,64.7,61.7,29.91,SE,140,1.0,1.0,90,0.00,,,0.00,Wunderground v.1.15,2013-05-19 02:49:00,
2013-05-19 06:00:00,64.3,61.3,29.91,SE,140,0.0,0.0,90,0.00,,,0.00,Wunderground v.1.15,2013-05-19 03:00:00,
2013-05-19 06:09:00,64.0,61.0,29.91,SE,139,0.0,0.0,90,0.00,,,0.00,Wunderground v.1.15,2013-05-19 03:09:00,
2013-05-19 06:19:00,64.2,61.2,29.91,SE,140,1.0,1.0,90,0.00,,,0.00,Wunderground v.1.15,2013-05-19 03:19:00,
2013-05-19 06:29:00,64.6,61.6,29.90,SE,142,2.0,2.0,90,0.00,,,0.00,Wunderground v.1.15,2013-05-19 03:29:00,
2013-05-19 06:39:00,65.1,61.8,29.90,SE,143,1.0,2.0,89,0.00,,,0.00,Wunderground v.1.15,2013-05-19 03:39:00,
2013-05-19 06:49:00,65.6,61.9,29.91,SE,143,1.0,1.0,88,0.00,,,0.00,Wunderground v.1.15,2013-05-19 03:49:00,
2013-05-19 07:00:00,66.5,62.5,29.90,SE,143,1.0,1.0,87,0.00,,,0.00,Wunderground v.1.15,2013-05-19 04:00:00,
2013-05-19 07:09:00,67.7,62.7,29.90,SE,143,1.0,1.0,84,0.00,,,0.00,Wunderground v.1.15,2013-05-19 04:09:00,
2013-05-19 07:19:00,69.4,64.4,29.91,SE,143,1.0,1.0,84,0.00,,,0.00,Wunderground v.1.15,2013-05-19 04:19:00,
2013-05-19 07:29:00,70.4,64.6,29.91,SE,143,1.0,2.0,82,0.00,,,0.00,Wunderground v.1.15,2013-05-19 04:29:00,
2013-05-19 07:39:00,71.1,65.0,29.91,SE,145,2.0,2.0,81,0.00,,,0.00,Wunderground v.1.15,2013-05-19 04:39:00,
2013-05-19 07:49:00,72.0,65.8,29.91,SW,216,2.0,2.0,81,0.00,,,0.00,Wunderground v.1.15,2013-05-19 04:49:00,
2013-05-19 08:00:00,72.5,66.3,29.91,SW,229,1.0,2.0,81,0.00,,,0.00,Wunderground v.1.15,2013-05-19 05:00:00,
2013-05-19 08:09:00,72.8,66.3,29.91,West,260,2.0,3.0,80,0.00,,,0.00,Wunderground v.1.15,2013-05-19 05:09:00,
2013-05-19 08:19:00,73.1,66.2,29.92,SW,234,3.0,4.0,79,0.00,,,0.00,Wunderground v.1.15,2013-05-19 05:19:00,
2013-05-19 08:32:00,73.4,65.4,29.92,West,266,3.0,3.0,76,0.00,,,0.00,Wunderground v.1.15,2013-05-19 05:32:00,
2013-05-19 08:42:00,73.9,63.5,29.92,WSW,241,3.0,3.0,70,0.00,,,0.00,Wunderground v.1.15,2013-05-19 05:42:00,
2013-05-19 08:52:00,74.9,64.0,29.92,West,261,3.0,3.0,69,0.00,,,0.00,Wunderground v.1.15,2013-05-19 05:52:00,
2013-05-19 09:03:00,76.0,63.4,29.92,SSW,195,2.0,2.0,65,0.00,,,0.00,Wunderground v.1.15,2013-05-19 06:03:00,
2013-05-19 09:12:00,76.6,64.0,29.92,West,263,3.0,3.0,65,0.00,,,0.00,Wunderground v.1.15,2013-05-19 06:12:00,
2013-05-19 09:22:00,76.7,62.2,29.92,West,264,3.0,3.0,61,0.00,,,0.00,Wunderground v.1.15,2013-05-19 06:22:00,
2013-05-19 09:32:00,76.8,60.9,29.91,SSW,212,3.0,3.0,58,0.00,,,0.00,Wunderground v.1.15,2013-05-19 06:32:00,
2013-05-19 09:42:00,77.2,61.8,29.92,WSW,249,3.0,3.0,59,0.00,,,0.00,Wunderground v.1.15,2013-05-19 06:42:00,
2013-05-19 09:52:00,77.2,62.2,29.92,WNW,295,4.0,4.0,60,0.00,,,0.00,Wunderground v.1.15,2013-05-19 06:52:00,
2013-05-19 10:02:00,77.8,62.3,29.91,South,183,2.0,2.0,59,0.00,,,0.00,Wunderground v.1.15,2013-05-19 07:02:00,
2013-05-19 10:12:00,78.4,61.4,29.91,SW,218,2.0,3.0,56,0.00,,,0.00,Wunderground v.1.15,2013-05-19 07:12:00,
2013-05-19 10:22:00,78.7,60.7,29.92,SW,225,3.0,4.0,54,0.00,,,0.00,Wunderground v.1.15,2013-05-19 07:22:00,
2013-05-19 10:32:00,79.1,60.5,29.92,SW,223,3.0,3.0,53,0.00,,,0.00,Wunderground v.1.15,2013-05-19 07:32:00,
2013-05-19 10:42:00,79.5,59.2,29.92,West,273,3.0,3.0,50,0.00,,,0.00,Wunderground v.1.15,2013-05-19 07:42:00,
2013-05-19 10:52:00,79.8,57.8,29.92,WSW,257,3.0,3.0,47,0.00,,,0.00,Wunderground v.1.15,2013-05-19 07:52:00,
2013-05-19 11:02:00,80.0,59.7,29.92,West,266,2.0,2.0,50,0.00,,,0.00,Wunderground v.1.15,2013-05-19 08:02:00,
2013-05-19 11:12:00,80.3,61.1,29.92,SW,226,3.0,4.0,52,0.00,,,0.00,Wunderground v.1.15,2013-05-19 08:12:00,
2013-05-19 11:22:00,80.0,65.8,29.92,WSW,243,3.0,6.0,62,0.00,,,0.00,Wunderground v.1.15,2013-05-19 08:22:00,
2013-05-19 11:32:00,78.8,66.0,29.93,WSW,254,6.0,6.0,65,0.00,,,0.00,Wunderground v.1.15,2013-05-19 08:32:00,
2013-05-19 11:42:00,77.9,65.6,29.92,West,263,5.0,5.0,66,0.00,,,0.00,Wunderground v.1.15,2013-05-19 08:42:00,
2013-05-19 11:52:00,77.5,64.8,29.92,West,264,5.0,5.0,65,0.00,,,0.00,Wunderground v.1.15,2013-05-19 08:52:00,
2013-05-19 12:02:00,77.3,64.2,29.92,WSW,252,6.0,9.0,64,0.00,,,0.00,Wunderground v.1.15,2013-05-19 09:02:00,
2013-05-19 12:12:00,77.5,64.4,29.92,WNW,285,4.0,7.0,64,0.00,,,0.00,Wunderground v.1.15,2013-05-19 09:12:00,
2013-05-19 12:22:00,77.1,63.5,29.91,WNW,283,5.0,5.0,63,0.00,,,0.00,Wunderground v.1.15,2013-05-19 09:22:00,
2013-05-19 12:32:00,77.5,64.4,29.91,WSW,248,4.0,6.0,64,0.00,,,0.00,Wunderground v.1.15,2013-05-19 09:32:00,
2013-05-19 12:42:00,77.7,62.2,29.91,NW,319,4.0,4.0,59,0.00,,,0.00,Wunderground v.1.15,2013-05-19 09:42:00,
2013-05-19 12:52:00,79.2,59.0,29.91,WNW,297,4.0,4.0,50,0.00,,,0.00,Wunderground v.1.15,2013-05-19 09:52:00,
2013-05-19 13:03:00,80.1,58.6,29.90,WNW,291,4.0,4.0,48,0.00,,,0.00,Wunderground v.1.15,2013-05-19 10:03:00,
2013-05-19 13:12:00,81.2,56.6,29.90,NNW,330,3.0,3.0,43,0.00,,,0.00,Wunderground v.1.15,2013-05-19 10:12:00,
2013-05-19 13:22:00,81.9,54.5,29.89,NW,304,3.0,4.0,39,0.00,,,0.00,Wunderground v.1.15,2013-05-19 10:22:00,
2013-05-19 13:32:00,82.4,52.0,29.88,West,262,3.0,3.0,35,0.00,,,0.00,Wunderground v.1.15,2013-05-19 10:32:00,
2013-05-19 13:42:00,83.2,50.3,29.88,WNW,292,3.0,4.0,32,0.00,,,0.00,Wunderground v.1.15,2013-05-19 10:42:00,
2013-05-19 13:52:00,83.6,48.0,29.87,WSW,249,3.0,3.0,29,0.00,,,0.00,Wunderground v.1.15,2013-05-19 10:52:00,
2013-05-19 14:02:00,84.7,48.0,29.87,WSW,243,2.0,2.0,28,0.00,,,0.00,Wunderground v.1.15,2013-05-19 11:02:00,
2013-05-19 14:12:00,85.4,47.6,29.86,SSE,162,2.0,2.0,27,0.00,,,0.00,Wunderground v.1.15,2013-05-19 11:12:00,
2013-05-19 14:22:00,85.8,48.9,29.86,WSW,241,2.0,4.0,28,0.00,,,0.00,Wunderground v.1.15,2013-05-19 11:22:00,
2013-05-19 14:32:00,84.8,49.9,29.86,WNW,290,5.0,5.0,30,0.00,,,0.00,Wunderground v.1.15,2013-05-19 11:32:00,
2013-05-19 14:42:00,84.2,54.4,29.86,NW,314,4.0,4.0,36,0.00,,,0.00,Wunderground v.1.15,2013-05-19 11:42:00,
2013-05-19 14:52:00,83.2,55.0,29.85,NW,313,5.0,5.0,38,0.00,,,0.00,Wunderground v.1.15,2013-05-19 11:52:00,
2013-05-19 15:02:00,82.1,55.4,29.84,West,274,5.0,5.0,40,0.00,,,0.00,Wunderground v.1.15,2013-05-19 12:02:00,
2013-05-19 15:12:00,82.7,54.5,29.84,West,281,4.0,8.0,38,0.00,,,0.00,Wunderground v.1.15,2013-05-19 12:12:00,
2013-05-19 15:22:00,82.9,55.4,29.84,West,277,4.0,7.0,39,0.00,,,0.00,Wunderground v.1.15,2013-05-19 12:22:00,
2013-05-19 15:32:00,82.5,55.0,29.83,West,275,5.0,5.0,39,0.00,,,0.00,Wunderground v.1.15,2013-05-19 12:32:00,
2013-05-19 15:42:00,82.5,53.6,29.83,West,264,4.0,4.0,37,0.00,,,0.00,Wunderground v.1.15,2013-05-19 12:42:00,
2013-05-19 15:52:00,81.5,54.8,29.83,West,279,6.0,6.0,40,0.00,,,0.00,Wunderground v.1.15,2013-05-19 12:52:00,
2013-05-19 16:02:00,81.0,55.1,29.83,NW,321,5.0,5.0,41,0.00,,,0.00,Wunderground v.1.15,2013-05-19 13:02:00,
2013-05-19 16:12:00,81.1,50.1,29.83,NW,324,4.0,4.0,34,0.00,,,0.00,Wunderground v.1.15,2013-05-19 13:12:00,
2013-05-19 16:22:00,81.4,49.5,29.83,NNW,328,4.0,4.0,33,0.00,,,0.00,Wunderground v.1.15,2013-05-19 13:22:00,
2013-05-19 16:32:00,81.8,49.9,29.82,NW,316,4.0,4.0,33,0.00,,,0.00,Wunderground v.1.15,2013-05-19 13:32:00,
2013-05-19 16:42:00,81.1,52.4,29.82,West,262,4.0,4.0,37,0.00,,,0.00,Wunderground v.1.15,2013-05-19 13:42:00,
2013-05-19 16:52:00,80.6,50.4,29.81,NNW,331,5.0,7.0,35,0.00,,,0.00,Wunderground v.1.15,2013-05-19 13:52:00,
2013-05-19 17:02:00,80.5,51.1,29.81,NW,318,5.0,5.0,36,0.00,,,0.00,Wunderground v.1.15,2013-05-19 14:02:00,
2013-05-19 17:12:00,79.9,53.4,29.81,NW,304,5.0,5.0,40,0.00,,,0.00,Wunderground v.1.15,2013-05-19 14:12:00,
2013-05-19 17:32:00,79.9,54.1,29.80,NNE,17,3.0,3.0,41,0.00,,,0.00,Wunderground v.1.15,2013-05-19 14:32:00,
2013-05-19 17:42:00,79.8,51.2,29.80,North,4,3.0,3.0,37,0.00,,,0.00,Wunderground v.1.15,2013-05-19 14:42:00,
2013-05-19 17:52:00,79.6,52.5,29.80,NNW,336,3.0,6.0,39,0.00,,,0.00,Wunderground v.1.15,2013-05-19 14:52:00,
2013-05-19 18:02:00,78.8,55.0,29.80,NW,326,4.0,4.0,44,0.00,,,0.00,Wunderground v.1.15,2013-05-19 15:02:00,
2013-05-19 18:12:00,78.2,54.5,29.81,North,350,5.0,5.0,44,0.00,,,0.00,Wunderground v.1.15,2013-05-19 15:12:00,
2013-05-19 18:22:00,78.1,57.9,29.80,WNW,293,4.0,4.0,50,0.00,,,0.00,Wunderground v.1.15,2013-05-19 15:22:00,
2013-05-19 18:32:00,77.5,59.0,29.81,North,6,5.0,6.0,53,0.00,,,0.00,Wunderground v.1.15,2013-05-19 15:32:00,
2013-05-19 18:42:00,76.9,58.5,29.80,WNW,297,4.0,4.0,53,0.00,,,0.00,Wunderground v.1.15,2013-05-19 15:42:00,
2013-05-19 18:52:00,76.5,57.0,29.80,NW,321,5.0,6.0,51,0.00,,,0.00,Wunderground v.1.15,2013-05-19 15:52:00,
2013-05-19 19:02:00,76.2,58.9,29.80,North,360,4.0,4.0,55,0.00,,,0.00,Wunderground v.1.15,2013-05-19 16:02:00,
2013-05-19 19:12:00,76.0,59.2,29.80,NW,324,4.0,4.0,56,0.00,,,0.00,Wunderground v.1.15,2013-05-19 16:12:00,
2013-05-19 19:22:00,75.5,58.7,29.80,NNW,332,4.0,4.0,56,0.00,,,0.00,Wunderground v.1.15,2013-05-19 16:22:00,
2013-05-19 19:32:00,75.3,59.0,29.81,NW,312,3.0,3.0,57,0.00,,,0.00,Wunderground v.1.15,2013-05-19 16:32:00,
2013-05-19 19:42:00,75.0,58.7,29.81,North,4,3.0,3.0,57,0.00,,,0.00,Wunderground v.1.15,2013-05-19 16:42:00,
2013-05-19 19:52:00,74.6,58.4,29.81,NW,324,3.0,4.0,57,0.00,,,0.00,Wunderground v.1.15,2013-05-19 16:52:00,
2013-05-19 20:12:00,73.9,57.7,29.82,North,350,3.0,3.0,57,0.00,,,0.00,Wunderground v.1.15,2013-05-19 17:12:00,
2013-05-19 20:22:00,73.8,58.1,29.82,North,355,3.0,3.0,58,0.00,,,0.00,Wunderground v.1.15,2013-05-19 17:22:00,
2013-05-19 20:32:00,73.7,58.5,29.82,NNE,12,3.0,4.0,59,0.00,,,0.00,Wunderground v.1.15,2013-05-19 17:32:00,
2013-05-19 20:42:00,73.4,58.2,29.83,NNE,14,3.0,3.0,59,0.00,,,0.00,Wunderground v.1.15,2013-05-19 17:42:00,
2013-05-19 20:52:00,73.1,58.4,29.83,North,355,3.0,3.0,60,0.00,,,0.00,Wunderground v.1.15,2013-05-19 17:52:00,
2013-05-19 21:02:00,72.9,58.7,29.83,NE,39,2.0,2.0,61,0.00,,,0.00,Wunderground v.1.15,2013-05-19 18:02:00,
2013-05-19 21:32:00,72.6,59.7,29.83,NE,39,1.0,1.0,64,0.00,,,0.00,Wunderground v.1.15,2013-05-19 18:32:00,
2013-05-19 21:42:00,72.8,59.5,29.83,NE,39,1.0,1.0,63,0.00,,,0.00,Wunderground v.1.15,2013-05-19 18:42:00,
2013-05-19 21:52:00,72.9,59.1,29.83,NE,39,1.0,1.0,62,0.00,,,0.00,Wunderground v.1.15,2013-05-19 18:52:00,
2013-05-19 22:22:00,72.7,59.4,29.82,NE,39,0.0,0.0,63,0.00,,,0.00,Wunderground v.1.15,2013-05-19 19:22:00,
2013-05-19 22:32:00,72.5,58.7,29.81,NE,39,1.0,1.0,62,0.00,,,0.00,Wunderground v.1.15,2013-05-19 19:32:00,
2013-05-19 22:42:00,72.4,58.6,29.81,NE,39,1.0,1.0,62,0.00,,,0.00,Wunderground v.1.15,2013-05-19 19:42:00,
2013-05-19 22:52:00,72.3,58.5,29.80,NE,39,1.0,1.0,62,0.00,,,0.00,Wunderground v.1.15,2013-05-19 19:52:00,
2013-05-19 23:02:00,72.2,58.5,29.80,NE,39,1.0,1.0,62,0.00,,,0.00,Wunderground v.1.15,2013-05-19 20:02:00,
2013-05-19 23:12:00,72.3,58.1,29.81,NNE,12,1.0,2.0,61,0.00,,,0.00,Wunderground v.1.15,2013-05-19 20:12:00,
2013-05-19 23:22:00,72.5,57.4,29.81,North,4,2.0,2.0,59,0.00,,,0.00,Wunderground v.1.15,2013-05-19 20:22:00,
2013-05-19 23:32:00,72.3,57.2,29.80,North,4,1.0,1.0,59,0.00,,,0.00,Wunderground v.1.15,2013-05-19 20:32:00,
2013-05-19 23:42:00,72.2,57.1,29.80,North,4,1.0,1.0,59,0.00,,,0.00,Wunderground v.1.15,2013-05-19 20:42:00,
2013-05-19 23:52:00,72.3,56.7,29.80,North,4,1.0,1.0,58,0.00,,,0.00,Wunderground v.1.15,2013-05-19 20:52:00,